Cumberland, WI

2:52 AM CDT on March 26, 2017 (GMT -0500)
Cumberland Municipal

Weather History for KUBE - February, 2012

Change the Weather History Date:

Tuesday, February 28, 2012

  Actual Average (KRPD) Record (KRPD)
Temperature  
Mean Temperature 26 °F -  
Max Temperature 32 °F 27 °F 44 °F (2004)
Min Temperature 21 °F 12 °F -25 °F (2014)
Degree Days  
Heating Degree Days 38    
Moisture  
Dew Point 20 °F    
Average Humidity 76    
Maximum Humidity 93    
Minimum Humidity 64    
Precipitation  
Precipitation 0.00 in - - ()
Sea Level Pressure  
Sea Level Pressure 30.19 in    
Wind  
Wind Speed 6 mph (SE)    
Max Wind Speed 16 mph    
Max Gust Speed 21 mph    
Visibility 9 miles    
Events Snow    
Averages and records for this station are not official NWS values.
T = Trace of Precipitation, MM = Missing Value Source: NWS Daily Summary

Daily Weather History Graph

Daily Weather History Graph

Search for Another Location

Airport or City:

Trip Planner

Search our weather history database for the weather conditions in past years. The results will help you decide how hot, cold, wet, or windy it might be!

Date:

Astronomy

Feb. 28, 2012 Rise Set
Actual Time 6:48 AM CST 5:52 PM CST
Civil Twilight 6:19 AM CST 6:22 PM CST
Nautical Twilight 5:44 AM CST 6:56 PM CST
Astronomical Twilight 5:10 AM CST 7:31 PM CST
Moon 9:35 AM CST (2/28) 12:06 AM CST (2/28)
Length of Visible Light 12h 03m
Length of Day
11h 03m
Waxing Crescent, 38% of the Moon is Illuminated
Feb 28
Waxing Crescent
Feb 29
First Quarter
Mar 8
Full
Mar 14
Last Quarter
Mar 22
New

Hourly Weather History & Observations

Time (CST) Temp. Windchill Dew Point Humidity Pressure Visibility Wind Dir Wind Speed Gust Speed Precip Events Conditions
12:15 AM 21.2 °F 16.4 °F 17.6 °F 86% 30.35 in 10.0 mi South 3.5 mph - N/A   Overcast
12:35 AM 21.2 °F 16.4 °F 17.6 °F 86% 30.35 in 10.0 mi South 3.5 mph - N/A   Mostly Cloudy
12:55 AM 21.2 °F 16.4 °F 15.8 °F 80% 30.35 in 10.0 mi South 3.5 mph - N/A   Mostly Cloudy
1:15 AM 21.2 °F 16.4 °F 15.8 °F 80% 30.34 in 10.0 mi SSE 3.5 mph - N/A   Overcast
1:35 AM 23.0 °F 18.4 °F 17.6 °F 80% 30.32 in 10.0 mi SE 3.5 mph - N/A   Overcast
1:55 AM 23.0 °F 15.8 °F 15.8 °F 74% 30.31 in 10.0 mi ESE 5.8 mph - N/A   Overcast
2:15 AM 23.0 °F 14.7 °F 15.8 °F 74% 30.27 in 10.0 mi ESE 6.9 mph - N/A   Overcast
2:35 AM 23.0 °F - 17.6 °F 80% 30.30 in 10.0 mi Calm Calm - N/A   Overcast
2:55 AM 23.0 °F 18.4 °F 17.6 °F 80% 30.30 in 10.0 mi SE 3.5 mph - N/A   Overcast
3:15 AM 23.0 °F 18.4 °F 17.6 °F 80% 30.31 in 10.0 mi WNW 3.5 mph - N/A   Overcast
3:35 AM 23.0 °F - 17.6 °F 80% 30.30 in 10.0 mi Calm Calm - N/A   Overcast
3:55 AM 23.0 °F - 17.6 °F 80% 30.31 in 10.0 mi Calm Calm - N/A   Overcast
4:15 AM 23.0 °F 18.4 °F 17.6 °F 80% 30.30 in 10.0 mi East 3.5 mph - N/A   Overcast
4:35 AM 23.0 °F 17.0 °F 17.6 °F 80% 30.29 in 10.0 mi ESE 4.6 mph - N/A   Overcast
4:55 AM 23.0 °F 15.8 °F 17.6 °F 80% 30.28 in 7.0 mi ESE 5.8 mph - N/A Snow Light Snow
5:15 AM 23.0 °F 17.0 °F 17.6 °F 80% 30.28 in 10.0 mi ESE 4.6 mph - N/A Snow Light Snow
5:35 AM 23.0 °F 17.0 °F 19.4 °F 86% 30.27 in 10.0 mi ESE 4.6 mph - N/A   Overcast
5:55 AM 23.0 °F 17.0 °F 17.6 °F 80% 30.27 in 10.0 mi ESE 4.6 mph - N/A   Overcast
6:15 AM 23.0 °F 17.0 °F 19.4 °F 86% 30.27 in 10.0 mi SE 4.6 mph - N/A   Overcast
6:35 AM 23.0 °F 15.8 °F 19.4 °F 86% 30.27 in 10.0 mi SE 5.8 mph - N/A   Overcast
6:55 AM 23.0 °F 15.8 °F 19.4 °F 86% 30.26 in 10.0 mi ESE 5.8 mph - N/A   Overcast
7:15 AM 24.8 °F 16.9 °F 19.4 °F 80% 30.26 in 10.0 mi ESE 6.9 mph - N/A   Overcast
7:35 AM 24.8 °F 17.9 °F 19.4 °F 80% 30.25 in 10.0 mi ESE 5.8 mph - N/A   Overcast
7:55 AM 24.8 °F 16.9 °F 19.4 °F 80% 30.25 in 10.0 mi SE 6.9 mph - N/A   Overcast
8:15 AM 24.8 °F 15.3 °F 19.4 °F 80% 30.25 in 10.0 mi ESE 9.2 mph - N/A   Overcast
8:35 AM 26.6 °F 19.1 °F 19.4 °F 74% 30.23 in 10.0 mi ESE 6.9 mph - N/A   Overcast
8:55 AM 26.6 °F 18.2 °F 19.4 °F 74% 30.23 in 10.0 mi SE 8.1 mph - N/A   Overcast
9:15 AM 26.6 °F 16.8 °F 19.4 °F 74% 30.22 in 10.0 mi ESE 10.4 mph - N/A   Overcast
9:35 AM 26.6 °F 18.2 °F 19.4 °F 74% 30.22 in 10.0 mi SE 8.1 mph - N/A   Overcast
9:55 AM 26.6 °F 16.2 °F 21.2 °F 80% 30.21 in 10.0 mi SE 11.5 mph - N/A   Overcast
10:15 AM 26.6 °F 18.2 °F 21.2 °F 80% 30.20 in 10.0 mi SE 8.1 mph - N/A   Overcast
10:35 AM 28.4 °F 19.7 °F 21.2 °F 74% 30.19 in 10.0 mi SE 9.2 mph - N/A   Overcast
10:55 AM 28.4 °F 19.1 °F 21.2 °F 74% 30.17 in 10.0 mi SE 10.4 mph - N/A   Overcast
11:15 AM 28.4 °F 19.7 °F 21.2 °F 74% 30.16 in 10.0 mi SSE 9.2 mph - N/A   Overcast
11:35 AM 30.2 °F 21.9 °F 21.2 °F 69% 30.15 in 10.0 mi SE 9.2 mph - N/A   Overcast
11:55 AM 30.2 °F 20.8 °F 21.2 °F 69% 30.15 in 10.0 mi SSE 11.5 mph 16.1 mph N/A   Overcast
12:15 PM 30.2 °F 21.3 °F 21.2 °F 69% 30.14 in 10.0 mi SE 10.4 mph - N/A   Overcast
12:35 PM 30.2 °F 21.9 °F 21.2 °F 69% 30.12 in 10.0 mi SE 9.2 mph - N/A   Overcast
12:55 PM 32.0 °F 24.8 °F 21.2 °F 64% 30.11 in 10.0 mi SE 8.1 mph - N/A   Overcast
1:15 PM 32.0 °F 24.8 °F 21.2 °F 64% 30.11 in 10.0 mi SE 8.1 mph - N/A   Overcast
1:35 PM 32.0 °F 25.6 °F 21.2 °F 64% 30.10 in 10.0 mi ESE 6.9 mph - N/A   Overcast
1:55 PM 32.0 °F 23.6 °F 21.2 °F 64% 30.09 in 10.0 mi ESE 10.4 mph - N/A   Overcast
2:15 PM 32.0 °F 24.2 °F 21.2 °F 64% 30.07 in 10.0 mi SE 9.2 mph - N/A   Overcast
2:35 PM 32.0 °F 23.0 °F 21.2 °F 64% 30.06 in 10.0 mi SE 11.5 mph - N/A   Overcast
2:55 PM 32.0 °F 22.5 °F 21.2 °F 64% 30.05 in 10.0 mi ESE 12.7 mph - N/A   Overcast
3:15 PM 32.0 °F 24.2 °F 21.2 °F 64% 30.04 in 10.0 mi ESE 9.2 mph - N/A   Overcast
3:35 PM 32.0 °F 23.0 °F 21.2 °F 64% 30.02 in 10.0 mi ESE 11.5 mph 16.1 mph N/A   Overcast
3:55 PM 32.0 °F 23.6 °F 21.2 °F 64% 30.01 in 10.0 mi SE 10.4 mph - N/A   Overcast
4:15 PM 32.0 °F 21.2 °F 21.2 °F 64% 30.00 in 7.0 mi ESE 16.1 mph 20.7 mph N/A Snow Light Snow
4:35 PM 30.2 °F 22.6 °F 23.0 °F 75% 29.99 in 4.0 mi ESE 8.1 mph 16.1 mph N/A Snow Light Snow
4:55 PM 30.2 °F 21.9 °F 24.8 °F 80% 29.98 in 2.5 mi East 9.2 mph - N/A Snow Light Snow
5:15 PM 30.2 °F 22.6 °F 26.6 °F 86% 29.98 in 0.8 mi ESE 8.1 mph - N/A Snow Light Snow
5:35 PM 28.4 °F 18.5 °F 26.6 °F 93% 29.97 in 0.8 mi East 11.5 mph 17.3 mph N/A Snow Light Snow
5:55 PM 28.4 °F 19.1 °F 26.6 °F 93% 29.96 in 1.5 mi East 10.4 mph 19.6 mph N/A Snow Light Snow
6:15 PM 28.4 °F 18.0 °F 26.6 °F 93% 29.96 in 4.0 mi East 12.7 mph - N/A Snow Light Snow
6:35 PM 28.4 °F 17.0 °F 26.6 °F 93% 29.96 in 2.5 mi East 15.0 mph 18.4 mph N/A Snow Light Snow
6:55 PM 28.4 °F 19.1 °F 26.6 °F 93% 29.96 in 1.8 mi East 10.4 mph - N/A Snow Light Snow
7:15 PM 28.4 °F 18.5 °F 28.4 °F 100% 29.95 in 1.0 mi East 11.5 mph - 0.01 in Snow Snow
7:35 PM 28.4 °F 17.5 °F 28.4 °F 100% 29.93 in 1.2 mi East 13.8 mph - 0.02 in Snow Light Snow
7:55 PM 28.4 °F 18.0 °F 28.4 °F 100% 29.93 in 1.5 mi East 12.7 mph 18.4 mph 0.02 in Snow Light Snow
8:15 PM 30.2 °F 20.2 °F 28.4 °F 93% 29.92 in 1.2 mi East 12.7 mph 19.6 mph 0.01 in Snow Light Snow
8:35 PM 28.4 °F 17.5 °F 28.4 °F 100% 29.90 in 1.0 mi East 13.8 mph 20.7 mph 0.02 in Snow Snow
8:55 PM 28.4 °F 16.6 °F 28.4 °F 100% 29.89 in 0.5 mi East 16.1 mph 23.0 mph 0.03 in Snow Snow
9:15 PM 28.4 °F 17.5 °F 28.4 °F 100% 29.88 in 0.8 mi East 13.8 mph 19.6 mph 0.01 in Snow Snow
9:35 PM 28.4 °F 16.6 °F 28.4 °F 100% 29.87 in 0.5 mi East 16.1 mph 21.9 mph 0.03 in Snow Snow
9:55 PM 28.4 °F 16.6 °F 28.4 °F 100% 29.85 in 0.2 mi East 16.1 mph 21.9 mph 0.05 in Snow Snow
10:15 PM 28.4 °F 16.2 °F 28.4 °F 100% 29.83 in 0.5 mi East 17.3 mph 21.9 mph N/A Snow Light Snow
10:35 PM 30.2 °F 18.5 °F 28.4 °F 93% 29.81 in 0.5 mi East 17.3 mph 24.2 mph 0.02 in Snow Snow
10:55 PM 30.2 °F 18.9 °F 28.4 °F 93% 29.79 in 2.5 mi East 16.1 mph 24.2 mph 0.03 in Snow Light Snow
11:15 PM 30.2 °F 18.5 °F 28.4 °F 93% 29.76 in 1.0 mi East 17.3 mph 25.3 mph 0.01 in Snow Light Snow
11:35 PM 30.2 °F 18.5 °F 28.4 °F 93% 29.74 in 3.0 mi East 17.3 mph 26.5 mph 0.01 in Snow Light Snow
11:55 PM 30.2 °F 18.1 °F 28.4 °F 93% 29.73 in 0.2 mi East 18.4 mph 25.3 mph 0.01 in Snow Snow